Date,TemperatureHighF,TemperatureAvgF,TemperatureLowF,DewpointHighF,DewpointAvgF,DewpointLowF,HumidityHigh,HumidityAvg,HumidityLow,PressureMaxIn,PressureMinIn,WindSpeedMaxMPH,WindSpeedAvgMPH,GustSpeedMaxMPH,PrecipitationSumIn
2013-1-1,30.6,26.3,21.7,19.0,14.8,11.0,65,62,57,30.48,30.27,20,9,32,0.00
2013-1-2,24.2,21.4,18.9,12.0,9.6,8.0,65,61,57,30.58,30.46,26,15,33,0.00
2013-1-3,29.8,25.2,20.8,9.0,7.3,6.0,59,47,39,30.48,30.29,29,17,34,0.00
2013-1-4,40.4,34.1,26.0,25.0,16.1,9.0,63,48,39,30.31,30.23,30,11,36,0.00
2013-1-5,37.3,34.1,31.1,23.0,19.6,16.0,68,56,47,30.31,30.12,28,10,34,0.00
2013-1-6,43.2,36.0,29.0,25.0,18.0,14.0,55,48,44,30.11,29.94,19,7,27,0.00
2013-1-7,43.5,37.9,32.8,27.0,22.6,19.0,64,54,46,30.01,29.69,20,6,33,0.00
2013-1-8,44.2,40.2,36.8,27.0,22.2,17.0,57,49,38,30.01,29.73,21,6,34,0.00
2013-1-9,49.1,46.6,41.6,29.0,26.1,24.0,54,45,40,29.90,29.54,31,17,39,0.00
2013-1-10,42.0,23.5,10.3,29.0,18.6,7.0,91,83,53,30.03,29.51,20,8,24,0.00
2013-1-11,10.5,8.0,3.8,7.0,3.7,-1.0,86,82,78,30.44,30.04,14,6,23,0.00
2013-1-12,12.7,9.0,2.3,8.0,2.7,-3.0,83,76,70,30.46,30.32,24,8,28,0.00
2013-1-13,13.9,10.1,2.5,5.0,2.6,-3.0,79,72,67,30.54,30.42,21,8,24,0.00
2013-1-14,22.5,14.8,10.2,14.0,6.4,1.0,74,69,65,30.45,30.26,31,15,38,0.00
2013-1-15,35.3,29.6,22.6,23.0,19.2,13.0,72,65,60,30.37,30.30,26,15,36,0.00
2013-1-16,47.8,39.6,32.6,24.0,21.1,17.0,60,48,38,30.38,30.27,28,8,34,0.00
2013-1-17,46.5,39.9,34.4,22.0,18.8,16.0,49,43,33,30.39,30.15,25,12,34,0.00
2013-1-18,49.7,44.7,39.8,18.0,16.4,14.0,39,32,25,30.14,29.96,24,7,27,0.00
2013-1-19,46.2,43.4,39.0,19.0,16.3,14.0,43,34,28,30.24,30.08,14,4,19,0.00
2013-1-20,39.4,22.6,16.2,19.0,16.5,13.0,89,78,44,30.50,30.23,23,4,33,0.00
2013-1-21,50.3,38.6,18.0,20.0,15.0,9.0,87,43,22,30.39,30.09,16,6,29,0.00
2013-1-22,44.3,41.2,37.8,15.0,11.1,8.0,35,29,23,30.11,30.02,27,12,33,0.00
2013-1-23,48.7,39.1,24.4,27.0,17.8,14.0,76,44,30,30.11,29.85,17,5,27,0.00
2013-1-24,48.6,44.7,39.1,32.0,23.2,17.0,67,44,33,30.08,29.86,20,5,30,0.00
2013-1-25,51.6,43.9,38.7,31.0,26.7,23.0,62,51,44,30.08,29.86,26,14,35,0.00
2013-1-26,53.3,42.7,33.3,33.0,31.1,29.0,93,66,42,29.86,29.63,21,6,30,0.01
2013-1-27,40.6,33.8,28.8,29.0,19.3,14.0,77,56,37,29.90,29.78,9,2,13,0.00
2013-1-28,37.1,31.1,27.6,21.0,16.1,13.0,71,55,39,29.90,29.77,16,4,24,0.00
2013-1-29,29.3,15.6,5.6,22.0,7.6,-3.0,86,71,60,30.37,29.79,20,6,28,0.00
2013-1-30,41.9,29.8,18.9,27.0,20.9,11.0,86,71,54,30.20,30.03,19,6,29,0.00
2013-1-31,47.5,30.7,17.4,29.0,21.4,13.0,85,70,48,30.26,30.11,9,2,15,0.00
2013-2-1,47.0,39.5,34.4,30.0,25.4,21.0,77,58,37,30.29,30.06,14,3,22,0.00
2013-2-2,50.8,41.4,35.2,25.0,23.7,22.0,62,50,34,30.38,30.21,17,5,27,0.00
2013-2-3,46.7,41.5,37.4,24.0,21.5,18.0,51,45,39,30.21,29.95,22,8,34,0.00
2013-2-4,44.5,42.3,40.7,26.0,25.1,24.0,54,51,46,29.95,29.86,17,4,30,0.00
2013-2-5,48.2,42.2,38.1,31.0,26.1,23.0,61,53,45,29.94,29.72,21,5,28,0.00
2013-2-6,46.6,38.9,35.9,29.0,21.3,18.0,73,50,35,30.06,29.74,13,2,23,0.00
2013-2-7,43.8,36.5,26.3,20.0,18.4,16.0,72,49,35,30.05,29.89,19,7,26,0.00
2013-2-8,46.3,29.2,19.4,24.0,19.2,15.0,88,69,37,30.04,29.95,4,0,7,0.00
2013-2-9,40.6,27.1,15.5,29.0,20.6,13.0,94,79,38,30.03,29.99,18,4,24,0.00
2013-2-10,29.4,24.4,13.7,24.0,17.6,9.0,88,75,62,30.27,30.01,14,5,23,0.00
2013-2-11,34.1,27.6,19.3,22.0,17.4,12.0,75,66,61,30.23,30.10,23,11,31,0.00
2013-2-12,43.0,37.4,30.9,27.0,23.9,20.0,65,59,47,30.14,30.01,21,5,28,0.00
2013-2-13,47.4,40.7,26.0,30.0,24.9,20.0,89,55,39,30.24,29.91,20,6,30,0.00
2013-2-14,40.3,29.0,19.5,26.0,21.3,17.0,91,74,49,30.45,30.26,17,3,19,0.00
2013-2-15,48.4,36.2,21.6,28.0,23.7,18.0,88,63,43,30.49,30.23,18,4,24,0.00
2013-2-16,55.6,43.8,38.6,33.0,26.9,24.0,75,53,35,30.22,29.66,23,9,30,0.00
2013-2-17,39.4,33.5,25.4,30.0,25.4,20.0,94,74,51,30.12,29.70,13,2,15,0.00
2013-2-18,35.6,25.2,14.3,27.0,20.2,12.0,93,82,54,30.20,29.96,15,1,19,0.00
2013-2-19,41.6,30.5,18.6,25.0,17.8,14.0,85,61,38,29.96,29.72,14,4,21,0.01
2013-2-20,32.2,23.9,17.5,25.0,19.6,15.0,91,84,72,30.02,29.87,6,1,8,0.00
2013-2-21,35.9,26.1,10.6,19.0,15.2,7.0,92,66,42,30.09,29.98,14,2,21,0.00
2013-2-22,41.0,35.5,27.1,25.0,20.0,16.0,64,54,44,29.99,29.59,19,6,31,0.01
2013-2-23,40.7,34.2,28.0,26.0,20.8,15.0,90,60,40,30.12,29.55,16,5,23,0.01
2013-2-24,39.3,32.2,24.3,23.0,18.2,15.0,80,58,44,30.21,30.07,23,6,25,0.01
2013-2-25,42.2,34.9,30.5,26.0,18.5,15.0,58,52,44,30.08,29.85,24,9,34,0.01
2013-2-26,41.0,33.6,28.3,21.0,17.4,14.0,64,52,37,30.27,29.96,13,3,20,0.01
2013-2-27,43.1,33.9,28.3,19.0,15.3,13.0,58,48,32,30.29,30.22,20,6,27,0.01
2013-2-28,49.4,39.6,32.4,29.0,23.1,19.0,67,53,33,30.29,30.23,15,5,26,0.00
2013-3-1,56.2,47.7,39.9,35.0,32.2,29.0,73,56,42,30.26,30.18,21,7,31,0.00
2013-3-2,61.1,49.9,43.1,32.0,29.6,26.0,58,47,28,30.23,29.78,21,7,28,0.00
2013-3-3,45.0,37.4,23.4,33.0,21.1,8.0,84,54,28,30.14,29.62,36,9,44,0.00
2013-3-4,28.7,22.2,13.0,20.0,15.7,8.0,89,77,56,30.44,30.14,20,3,24,0.03
2013-3-5,38.3,24.0,8.9,22.0,14.8,6.0,90,70,40,30.39,30.13,10,3,17,0.00
2013-3-6,41.0,30.0,22.9,33.0,24.2,19.0,89,80,58,30.13,29.73,13,3,22,0.01
2013-3-7,47.5,36.0,26.1,27.0,22.4,17.0,91,61,33,30.07,29.87,11,3,22,0.00
2013-3-8,51.8,33.3,19.1,24.0,17.8,4.0,89,60,15,30.07,29.89,12,2,15,0.00
2013-3-9,50.8,34.7,17.7,24.0,19.0,15.0,90,57,28,30.28,30.04,10,1,14,0.00
2013-3-10,52.8,42.2,35.6,26.0,21.8,15.0,59,46,23,30.28,30.07,18,8,27,0.00
2013-3-11,40.2,33.7,24.7,26.0,22.8,20.0,87,66,46,30.36,30.02,16,5,30,0.00
2013-3-12,50.5,36.5,21.4,32.0,23.7,18.0,87,62,42,30.36,30.06,25,7,28,0.00
2013-3-13,63.2,53.7,48.0,33.0,30.5,27.0,55,42,27,30.09,30.00,22,6,29,0.00
2013-3-14,66.2,53.2,42.7,31.0,29.3,28.0,60,41,25,30.05,29.82,17,5,23,0.00
2013-3-15,59.6,52.3,37.7,32.0,28.1,25.0,66,41,30,29.97,29.80,18,6,31,0.00
2013-3-16,53.7,39.5,27.2,33.0,26.1,23.0,84,61,38,29.97,29.63,17,3,24,0.00
2013-3-17,41.9,30.9,14.9,28.0,17.8,12.0,88,61,36,30.08,29.51,20,6,27,0.00
2013-3-18,38.4,27.6,12.0,23.0,17.3,8.0,89,67,43,30.08,29.98,22,5,33,0.07
2013-3-19,46.1,32.4,17.3,23.0,15.5,9.0,90,56,25,30.31,30.07,11,3,15,0.00
2013-3-20,61.4,47.6,35.1,35.0,20.9,9.0,70,36,24,30.07,29.40,23,11,37,0.02
2013-3-21,41.9,36.4,29.2,22.0,14.2,7.0,55,41,27,29.94,29.56,21,6,31,0.00
2013-3-22,29.7,24.6,17.7,22.0,16.7,10.0,86,72,53,30.35,29.94,15,4,18,0.00
2013-3-23,35.5,22.6,8.4,14.0,6.9,2.0,88,56,26,30.46,30.35,8,2,13,0.00
2013-3-24,40.7,24.9,9.3,14.0,7.3,4.0,83,52,24,30.47,30.30,5,1,8,0.00
2013-3-25,50.6,35.1,22.4,13.0,9.4,4.0,55,37,15,30.31,30.03,19,4,27,0.00
2013-3-26,56.2,39.1,24.7,24.0,18.7,13.0,74,47,23,30.04,29.91,9,2,13,0.00
2013-3-27,62.2,44.4,23.9,32.0,24.2,18.0,81,50,24,30.01,29.91,15,3,23,0.00
2013-3-28,62.2,48.4,33.6,37.0,32.8,28.0,85,58,29,30.01,29.90,14,2,17,0.00
2013-3-29,60.6,50.0,39.6,36.0,30.9,26.0,75,51,28,30.10,30.00,14,3,17,0.00
2013-3-30,61.4,46.1,29.8,34.0,27.4,24.0,85,53,24,30.20,30.02,9,2,13,0.00
2013-3-31,57.7,45.1,29.6,32.0,26.3,23.0,82,51,30,30.12,29.99,11,2,16,0.00
2013-4-1,61.9,43.0,24.4,29.0,24.7,21.0,88,54,24,30.12,29.97,7,2,9,0.00
2013-4-2,70.2,50.4,28.4,33.0,27.8,23.0,83,47,21,30.03,29.84,18,4,24,0.00
2013-4-3,60.5,52.4,39.6,35.0,33.1,30.0,75,49,35,30.00,29.87,18,3,26,0.00
2013-4-4,64.3,46.7,34.2,41.0,32.2,26.0,84,60,32,30.05,29.70,15,3,24,0.00
2013-4-5,61.5,53.6,47.3,40.0,33.4,27.0,68,48,28,29.78,29.62,24,6,29,0.00
2013-4-6,58.5,49.5,43.4,37.0,30.5,26.0,60,48,33,29.79,29.68,20,3,22,0.00
2013-4-7,51.0,40.0,26.6,40.0,30.5,24.0,94,71,49,29.91,29.52,23,6,27,0.00
2013-4-8,26.5,22.1,20.1,25.0,19.2,17.0,93,88,84,30.50,29.91,14,5,16,0.00
2013-4-9,42.8,27.5,13.4,25.0,19.5,10.0,89,74,39,30.59,30.32,8,1,13,0.00
2013-4-10,56.2,42.9,25.6,37.0,28.8,20.0,86,59,43,30.33,29.75,18,5,30,0.01
2013-4-11,53.4,44.7,35.1,33.0,27.6,22.0,71,53,32,29.97,29.76,17,5,26,0.00
2013-4-12,52.8,40.9,30.5,32.0,26.9,22.0,93,62,31,30.09,29.57,13,3,20,0.00
2013-4-13,49.7,42.7,32.1,33.0,20.4,11.0,62,43,24,29.68,29.35,24,7,35,0.00
2013-4-14,33.5,29.3,22.5,27.0,22.1,18.0,91,75,55,30.10,29.68,18,5,22,0.00
2013-4-15,28.2,24.2,20.6,24.0,19.7,16.0,87,83,79,30.33,30.08,12,6,16,0.01
2013-4-16,30.0,24.8,21.6,26.0,20.6,18.0,91,84,68,30.46,30.30,13,5,16,0.01
2013-4-17,40.2,29.1,20.4,25.0,19.5,15.0,91,71,37,30.48,30.34,7,2,11,0.02
2013-4-18,53.4,40.4,23.9,26.0,20.5,14.0,79,47,31,30.33,30.13,18,6,24,0.04
2013-4-19,53.2,45.8,40.0,34.0,29.8,23.0,73,54,46,30.12,29.77,16,5,26,0.02
2013-4-20,56.8,48.7,32.9,34.0,31.5,27.0,88,53,34,30.03,29.80,19,6,25,0.00
2013-4-21,31.9,26.4,22.4,29.0,23.4,20.0,93,88,76,30.43,30.03,14,7,17,0.03
2013-4-22,38.0,27.6,21.4,24.0,17.9,3.0,90,70,23,30.60,30.43,11,3,14,0.04
2013-4-23,48.9,35.9,20.9,29.0,21.7,16.0,83,58,35,30.44,30.20,15,5,20,0.04
2013-4-24,59.7,44.0,26.7,30.0,24.4,20.0,86,53,25,30.32,29.91,15,5,23,0.00
2013-4-25,66.0,54.8,43.3,29.0,24.8,19.0,55,32,20,29.92,29.73,25,6,29,0.00
2013-4-26,71.5,56.6,35.3,34.0,30.6,26.0,76,41,21,30.04,29.93,19,6,25,0.00
2013-4-27,71.0,61.6,53.8,35.0,28.9,23.0,48,30,17,29.99,29.74,24,7,42,0.00
2013-4-28,62.5,55.2,50.3,36.0,31.5,26.0,56,42,26,29.87,29.68,29,7,34,0.00
2013-4-29,56.2,48.0,35.5,37.0,26.2,13.0,73,44,24,29.77,29.45,31,9,37,0.00
2013-4-30,36.6,32.6,25.0,33.0,24.3,20.0,92,72,58,30.35,29.77,13,3,18,0.03
2013-5-1,50.8,36.7,20.4,26.0,19.1,15.0,88,54,25,30.62,30.36,14,2,19,0.00
2013-5-2,66.8,49.1,27.9,25.0,19.7,13.0,74,36,13,30.63,30.20,18,6,30,0.00
2013-5-3,53.5,44.9,38.1,43.0,34.6,22.0,93,69,42,30.27,30.16,12,4,16,0.46
2013-5-4,59.8,48.4,39.8,43.0,40.1,37.0,95,75,45,30.30,30.18,13,3,15,0.04
2013-5-5,68.0,51.0,33.0,41.0,37.0,32.0,95,64,33,30.18,29.91,7,2,11,0.00
2013-5-6,74.9,56.4,35.6,43.0,37.2,33.0,90,55,25,29.97,29.71,6,2,10,0.00
2013-5-7,70.8,57.4,40.5,42.0,37.6,35.0,83,51,31,29.99,29.75,20,7,31,0.00
2013-5-8,76.0,58.8,39.7,43.0,37.4,33.0,78,48,23,30.07,29.89,9,2,9,0.00
2013-5-9,76.4,59.0,43.8,46.0,42.3,36.0,88,57,23,30.04,29.92,21,2,34,0.00
2013-5-10,67.7,55.9,43.3,42.0,36.0,30.0,82,51,27,30.32,30.00,18,4,27,0.00
2013-5-11,81.6,61.7,38.8,45.0,36.5,31.0,78,43,20,30.26,29.93,18,5,25,0.00
2013-5-12,85.7,70.0,50.0,46.0,42.0,39.0,71,39,20,29.95,29.70,15,4,24,0.00
2013-5-13,85.3,71.2,56.8,50.0,44.5,33.0,60,40,23,29.78,29.40,32,5,37,0.00
2013-5-14,69.5,59.1,50.8,33.0,28.9,21.0,51,34,17,29.86,29.71,16,5,21,0.00
2013-5-15,70.9,57.6,39.3,34.0,28.9,24.0,62,36,20,29.94,29.74,11,2,15,0.00
2013-5-16,66.0,57.3,45.8,44.0,38.5,34.0,72,51,36,29.78,29.68,11,2,19,0.00
2013-5-17,58.5,50.3,41.9,49.0,42.8,37.0,92,76,56,29.88,29.75,10,2,11,0.24
2013-5-18,63.1,53.2,47.9,48.0,46.4,44.0,94,79,54,29.92,29.82,10,1,16,0.01
2013-5-19,56.3,51.5,48.1,48.0,46.4,44.0,93,83,65,30.11,29.91,13,2,15,0.26
2013-5-20,63.2,53.5,46.6,51.0,47.4,43.0,95,81,55,30.17,30.02,11,1,11,0.05
2013-5-21,74.4,57.7,38.2,48.0,38.6,27.0,96,58,21,30.02,29.62,13,3,26,0.00
2013-5-22,62.8,54.7,46.5,49.0,41.3,33.0,90,61,37,29.74,29.63,10,2,15,0.30
2013-5-23,55.1,46.8,40.1,45.0,40.6,37.0,92,80,56,29.91,29.73,18,4,22,0.59
2013-5-24,64.4,52.1,42.3,41.0,36.9,30.0,91,60,29,29.91,29.77,20,4,27,0.01
2013-5-25,68.6,55.5,44.7,42.0,36.9,33.0,67,51,33,29.91,29.78,24,4,27,0.00
2013-5-26,69.2,52.7,38.0,48.0,40.7,34.0,91,66,37,29.92,29.75,13,2,20,0.28
2013-5-27,63.5,52.6,45.6,49.0,45.3,42.0,88,77,56,29.82,29.68,12,2,14,0.11
2013-5-28,62.5,51.4,44.9,51.0,46.8,43.0,94,85,54,29.70,29.64,6,1,10,0.26
2013-5-29,64.5,54.7,47.5,50.0,46.6,43.0,93,76,48,29.69,29.53,13,2,18,0.01
2013-5-30,58.4,53.9,48.9,47.0,40.9,36.0,88,62,49,29.88,29.63,11,2,19,0.01
2013-5-31,57.3,50.4,44.5,47.0,41.8,35.0,90,73,54,30.23,29.88,13,2,18,0.03
2013-6-1,68.1,54.7,37.5,45.0,40.2,36.0,94,63,35,30.25,29.91,16,3,20,0.00
2013-6-2,61.5,52.9,45.2,51.0,45.6,40.0,93,77,55,29.91,29.71,12,1,13,0.20
2013-6-3,54.3,47.0,43.1,47.0,43.1,41.0,92,86,71,30.14,29.79,10,2,18,0.36
2013-6-4,59.3,48.7,39.0,42.0,39.5,37.0,94,73,46,30.24,30.14,6,1,10,0.04
2013-6-5,77.4,59.0,39.8,47.0,41.1,37.0,93,57,26,30.16,29.84,15,3,22,0.00
2013-6-6,79.6,64.0,46.0,54.0,47.5,42.0,89,58,32,29.99,29.77,6,1,13,0.00
2013-6-7,78.9,67.0,52.7,53.0,48.0,44.0,85,54,31,29.79,29.55,16,4,25,0.00
2013-6-8,78.3,66.6,49.1,50.0,41.3,34.0,84,44,21,29.78,29.68,14,3,20,0.00
2013-6-9,82.0,68.7,48.6,45.0,36.4,22.0,73,34,14,29.78,29.55,18,4,23,0.00
2013-6-10,77.9,61.3,40.3,47.0,38.3,28.0,74,46,25,29.77,29.58,10,3,12,0.00
2013-6-11,66.1,58.8,52.3,50.0,45.7,41.0,86,63,50,29.93,29.67,13,4,16,0.02
2013-6-12,75.1,57.8,44.4,59.0,51.5,43.0,96,81,51,29.94,29.74,12,2,21,0.64
2013-6-13,57.5,54.5,51.5,56.0,49.4,40.0,95,84,60,29.91,29.76,9,2,13,0.89
2013-6-14,63.6,55.4,43.7,42.0,39.0,34.0,84,56,37,29.99,29.89,11,4,25,0.00
2013-6-15,76.1,62.4,50.0,41.0,35.9,28.0,63,41,18,30.00,29.80,21,5,28,0.00
2013-6-16,72.9,59.6,40.8,51.0,44.3,37.0,87,59,43,30.01,29.90,14,2,14,0.00
2013-6-17,81.9,65.0,45.4,59.0,49.2,43.0,92,60,30,30.01,29.72,14,2,18,0.02
2013-6-18,83.4,66.8,50.8,60.0,51.6,45.0,85,61,30,29.76,29.48,11,2,19,0.02
2013-6-19,69.0,57.8,50.7,60.0,51.5,43.0,88,80,63,29.68,29.44,14,4,22,0.55
2013-6-20,64.8,55.2,50.3,44.0,40.8,39.0,71,59,41,29.95,29.61,22,7,28,0.02
2013-6-21,66.8,55.9,42.9,45.0,41.6,38.0,84,61,36,29.97,29.88,12,2,21,0.00
2013-6-22,65.3,56.0,47.8,49.0,45.3,41.0,90,69,48,29.95,29.82,15,2,22,0.00
2013-6-23,76.5,63.5,50.4,49.0,44.3,38.0,78,53,26,29.87,29.57,16,3,18,0.00
2013-6-24,76.1,63.1,50.8,56.0,49.5,44.0,85,63,39,29.57,29.42,9,1,15,0.02
2013-6-25,76.7,65.6,56.2,50.0,47.5,43.0,78,54,32,29.71,29.54,15,4,22,0.00
2013-6-26,76.4,65.9,55.1,52.0,47.5,42.0,78,53,32,29.94,29.71,13,4,20,0.00
2013-6-27,85.7,71.6,57.9,53.0,48.8,45.0,72,47,26,30.02,29.94,11,3,18,0.00
2013-6-28,92.0,73.6,52.0,57.0,51.5,45.0,85,50,20,30.08,29.91,12,2,15,0.00
2013-6-29,88.8,72.7,54.0,61.0,55.6,51.0,90,58,32,29.99,29.81,12,2,28,0.00
2013-6-30,89.8,77.0,62.5,60.0,57.2,54.0,73,52,33,29.90,29.82,9,2,21,0.03
2013-7-1,91.8,77.1,61.5,65.0,60.0,56.0,88,58,33,29.99,29.85,7,2,11,0.00
2013-7-2,96.1,76.9,58.1,70.0,59.4,54.0,86,58,27,29.91,29.68,9,2,20,0.04
2013-7-3,94.0,81.7,63.7,63.0,55.1,47.0,82,45,21,29.73,29.59,14,4,23,0.00
2013-7-4,90.0,77.0,60.5,64.0,51.5,42.0,83,47,19,29.68,29.50,13,2,17,0.00
2013-7-5,81.8,69.5,56.2,56.0,50.0,43.0,82,52,32,29.66,29.53,13,3,19,0.00
2013-7-6,79.3,63.8,51.0,54.0,50.1,46.0,87,64,32,29.79,29.66,9,2,14,0.00
2013-7-7,87.5,70.0,56.8,57.0,51.9,48.0,78,56,28,29.82,29.61,13,2,20,0.00
2013-7-8,83.0,68.2,58.5,59.0,53.7,44.0,93,63,26,29.93,29.68,17,3,23,0.41
2013-7-9,87.9,68.7,49.2,53.0,44.5,29.0,90,50,12,30.02,29.87,10,2,15,0.00
2013-7-10,95.4,74.7,49.2,51.0,43.6,34.0,81,40,12,29.91,29.56,15,2,20,0.00
2013-7-11,87.4,72.4,57.3,54.0,45.3,40.0,61,41,21,29.66,29.50,14,3,29,0.07
2013-7-12,84.5,70.3,56.4,50.0,46.5,40.0,73,45,21,29.70,29.59,13,4,37,0.02
2013-7-13,83.1,66.9,49.1,49.0,43.5,25.0,84,48,12,29.99,29.69,14,3,18,0.00
2013-7-14,87.5,70.6,52.1,52.0,41.7,32.0,70,40,14,30.02,29.78,11,2,21,0.00
2013-7-15,94.9,71.8,52.0,51.0,41.0,30.0,59,38,11,29.96,29.63,17,5,23,0.00
2013-7-16,79.0,65.9,51.0,51.0,46.7,44.0,78,52,34,30.05,29.92,9,3,14,0.00
2013-7-17,88.0,73.4,60.5,60.0,53.5,48.0,68,51,31,29.99,29.72,17,3,23,0.00
2013-7-18,90.6,76.9,61.2,56.0,47.6,35.0,78,41,14,29.92,29.80,13,4,18,0.00
2013-7-19,91.4,74.3,53.2,50.0,36.0,22.0,71,32,9,29.89,29.75,13,3,18,0.00
2013-7-20,91.8,74.6,56.4,55.0,40.2,22.0,75,36,8,29.86,29.59,11,2,19,0.00
2013-7-21,93.4,75.5,53.0,46.0,35.5,20.0,57,28,7,29.68,29.55,13,2,20,0.00
2013-7-22,91.4,74.3,51.5,44.0,35.3,21.0,61,28,9,29.74,29.61,12,3,19,0.00
2013-7-23,93.0,72.1,50.2,50.0,43.0,37.0,74,39,14,29.91,29.75,11,2,12,0.00
2013-7-24,97.3,74.5,52.2,51.0,42.7,-5.0,75,39,2,29.89,29.68,22,3,37,0.00
2013-7-25,89.2,73.7,57.3,57.0,52.1,49.0,77,50,25,29.98,29.80,7,2,13,0.00
2013-7-26,94.7,77.7,55.3,55.0,37.9,2.0,84,36,3,29.95,29.73,13,2,18,0.00
2013-7-27,91.7,75.5,55.2,54.0,31.5,15.0,63,26,7,29.77,29.57,17,4,22,0.00
2013-7-28,81.0,68.9,58.1,55.0,51.2,47.0,83,56,31,29.73,29.62,8,2,13,0.00
2013-7-29,73.3,63.0,54.8,52.0,47.6,46.0,73,59,41,29.93,29.72,19,4,34,0.00
2013-7-30,78.5,65.0,54.5,51.0,48.9,47.0,79,58,35,30.05,29.93,7,2,10,0.00
2013-7-31,90.4,70.5,48.3,52.0,44.5,38.0,86,46,16,30.09,29.84,11,2,17,0.00
2013-8-1,73.1,63.2,57.3,56.0,49.9,40.0,92,65,33,29.89,29.78,16,4,26,0.28
2013-8-2,74.8,62.7,52.9,57.0,50.5,44.0,95,69,35,29.96,29.75,12,2,20,0.09
2013-8-3,75.1,61.0,47.1,57.0,50.2,45.0,94,70,44,30.02,29.91,7,2,12,0.14
2013-8-4,85.0,67.1,48.3,53.0,45.2,35.0,91,53,17,29.96,29.80,10,2,20,0.00
2013-8-5,87.0,67.6,48.1,52.0,45.4,38.0,83,50,18,29.86,29.69,13,2,24,0.00
2013-8-6,83.6,67.6,49.2,53.0,46.6,41.0,91,53,25,29.87,29.80,9,2,12,0.00
2013-8-7,87.0,69.4,49.7,49.0,45.5,42.0,76,46,21,29.85,29.72,10,2,18,0.00
2013-8-8,82.3,67.8,52.5,54.0,50.9,46.0,85,57,36,29.95,29.81,12,3,18,0.00
2013-8-9,80.5,68.0,55.5,56.0,53.9,50.0,89,63,42,29.98,29.83,9,2,15,0.00
2013-8-10,88.3,72.1,55.0,55.0,49.2,43.0,81,48,21,29.90,29.77,10,2,19,0.00
2013-8-11,84.5,70.2,56.1,53.0,48.2,44.0,76,49,27,29.88,29.78,18,1,28,0.00
2013-8-12,90.0,69.4,52.5,52.0,46.1,40.0,77,47,18,29.91,29.80,8,2,18,0.00
2013-8-13,89.5,69.9,51.9,51.0,47.2,41.0,81,49,18,29.97,29.81,17,2,28,0.00
2013-8-14,91.4,73.7,57.6,52.0,44.8,28.0,74,42,11,29.92,29.74,15,3,19,0.00
2013-8-15,96.5,74.6,51.6,49.0,38.5,26.0,71,35,9,29.83,29.67,18,3,21,0.00
2013-8-16,98.0,75.6,51.5,45.0,35.5,26.0,55,27,9,29.76,29.63,17,3,25,0.00
2013-8-17,92.1,74.9,54.8,49.0,42.0,36.0,57,33,17,29.84,29.67,11,2,22,0.00
2013-8-18,90.3,77.4,60.4,51.0,45.0,38.0,66,34,18,29.80,29.68,15,3,25,0.00
2013-8-19,92.6,78.7,64.5,45.0,39.9,34.0,45,26,14,29.77,29.62,14,4,26,0.00
2013-8-20,88.5,76.9,65.9,48.0,41.5,36.0,46,30,16,29.76,29.65,14,4,26,0.00
2013-8-21,84.1,67.9,48.5,40.0,36.9,34.0,68,36,17,29.95,29.76,8,2,12,0.00
2013-8-22,90.3,71.5,49.1,49.0,41.6,34.0,64,37,17,29.93,29.68,13,2,22,0.00
2013-8-23,86.0,76.5,66.8,53.0,48.3,42.0,57,38,21,29.70,29.49,29,6,31,0.00
2013-8-24,88.2,74.8,62.2,55.0,46.9,38.0,74,41,17,29.75,29.57,12,2,27,0.01
2013-8-25,88.4,71.8,58.2,57.0,49.7,40.0,85,49,21,29.76,29.60,23,5,44,0.06
2013-8-26,88.1,70.5,54.8,56.0,49.8,43.0,88,54,23,29.84,29.68,20,2,27,0.01
2013-8-27,90.6,71.5,52.3,54.0,46.8,40.0,83,48,17,29.84,29.68,15,2,22,0.00
2013-8-28,86.4,71.2,56.6,55.0,48.7,42.0,64,46,29,29.82,29.67,14,3,21,0.01
2013-8-29,90.5,75.6,60.8,56.0,52.0,44.0,77,48,23,29.87,29.67,17,4,28,0.00
2013-8-30,87.9,72.1,52.9,55.0,45.9,38.0,81,45,19,29.87,29.75,16,4,23,0.00
2013-8-31,84.9,67.0,47.0,43.0,38.8,36.0,72,39,18,29.97,29.84,8,2,12,0.00
2013-9-1,92.0,70.1,46.6,44.0,37.1,34.0,65,35,14,29.92,29.68,18,3,27,0.00
2013-9-2,88.7,73.0,53.9,43.0,38.9,35.0,53,32,16,29.77,29.62,14,2,18,0.00
2013-9-3,89.5,72.5,53.9,51.0,45.0,40.0,68,40,20,29.92,29.77,15,2,20,0.00
2013-9-4,88.6,75.5,64.0,59.0,54.3,50.0,73,50,30,29.91,29.78,10,2,21,0.00
2013-9-5,86.3,70.9,55.9,59.0,52.9,48.0,79,55,32,29.86,29.73,15,2,24,0.01
2013-9-6,85.4,69.7,62.1,64.0,58.2,55.0,88,69,37,29.88,29.74,19,2,29,0.25
2013-9-7,71.1,64.5,60.2,61.0,59.3,58.0,93,83,69,29.94,29.84,9,2,12,0.04
2013-9-8,73.6,64.4,56.2,61.0,53.7,44.0,94,71,37,29.89,29.75,21,2,23,0.02
2013-9-9,75.5,63.5,56.4,57.0,49.3,45.0,79,61,42,29.89,29.79,10,2,16,0.06
2013-9-10,84.1,66.0,50.7,53.0,48.8,45.0,88,59,28,29.97,29.86,14,2,18,0.00
2013-9-11,81.2,65.0,47.4,52.0,46.9,42.0,88,56,27,30.12,29.96,9,2,16,0.00
2013-9-12,85.5,65.6,47.2,50.0,46.6,43.0,88,54,27,30.12,29.84,7,1,11,0.00
2013-9-13,86.7,70.5,52.6,52.0,47.5,43.0,83,48,22,29.84,29.59,11,2,24,0.00
2013-9-14,74.8,67.3,59.5,52.0,48.0,43.0,59,51,38,29.93,29.68,6,1,12,0.00
2013-9-15,81.7,64.6,45.8,53.0,46.9,40.0,85,56,33,29.99,29.70,11,1,17,0.00
2013-9-16,84.9,71.7,61.4,56.0,51.9,47.0,70,51,31,29.70,29.48,18,5,30,0.00
2013-9-17,65.6,57.3,47.6,53.0,48.1,43.0,88,72,52,29.64,29.46,22,3,31,0.02
2013-9-18,61.8,54.8,45.0,49.0,41.3,37.0,83,62,43,30.00,29.51,17,4,23,0.00
2013-9-19,68.1,52.3,36.8,43.0,37.4,34.0,91,62,30,30.11,29.98,10,1,14,0.00
2013-9-20,76.1,61.5,46.6,38.0,35.5,31.0,69,41,20,29.98,29.59,18,5,23,0.00
2013-9-21,82.9,67.5,52.7,37.0,31.7,27.0,54,28,14,29.59,29.35,18,3,24,0.00
2013-9-22,68.7,59.1,52.9,47.0,40.2,34.0,74,50,35,29.59,29.39,10,2,14,0.01
2013-9-23,63.8,56.2,51.3,41.0,35.3,31.0,67,47,31,29.83,29.58,18,4,24,0.00
2013-9-24,56.5,51.6,45.9,45.0,38.9,33.0,86,64,43,29.82,29.63,13,2,18,0.06
2013-9-25,48.4,44.7,40.7,44.0,41.0,38.0,92,87,78,29.81,29.66,19,3,21,0.65
2013-9-26,44.6,39.8,34.1,40.0,36.6,32.0,93,88,73,30.04,29.81,9,2,15,0.55
2013-9-27,54.8,44.1,31.7,38.0,32.7,29.0,94,67,41,30.06,29.87,15,3,24,0.01
2013-9-28,62.2,54.8,46.7,41.0,37.6,34.0,65,53,43,29.88,29.59,22,9,33,0.00
2013-9-29,61.3,54.6,49.6,40.0,35.9,33.0,67,50,41,29.60,29.34,29,10,38,0.02
2013-9-30,56.7,51.5,47.7,44.0,33.5,28.0,85,51,38,29.82,29.35,25,7,35,0.11
2013-10-1,56.2,49.2,42.1,33.0,30.4,27.0,66,49,36,29.95,29.82,14,4,26,0.00
2013-10-2,57.3,48.3,39.5,30.0,26.8,22.0,63,45,27,30.08,29.90,14,2,18,0.00
2013-10-3,45.5,36.6,32.6,35.0,32.8,27.0,94,87,49,30.44,29.95,16,4,20,0.47
2013-10-4,50.6,42.1,35.6,34.0,31.1,27.0,92,67,46,30.54,30.34,11,2,23,0.00
2013-10-5,60.1,49.2,40.1,32.0,28.8,26.0,62,47,31,30.33,30.18,25,7,29,0.00
2013-10-6,67.7,58.2,49.4,36.0,33.0,29.0,49,39,28,30.20,29.86,19,8,29,0.00
2013-10-7,71.7,59.0,49.3,36.0,31.3,28.0,50,36,21,29.85,29.56,16,4,23,0.00
2013-10-8,54.5,47.5,33.9,32.0,28.1,25.0,76,48,36,29.93,29.68,17,2,19,0.00
2013-10-9,50.4,39.2,29.7,38.0,32.6,26.0,87,78,59,30.10,29.86,7,1,9,0.00
2013-10-10,59.4,46.4,33.1,37.0,32.1,24.0,91,61,27,29.86,29.71,10,2,16,0.00
2013-10-11,55.9,45.9,36.3,33.0,27.7,23.0,75,51,30,30.01,29.83,7,1,12,0.00
2013-10-12,51.5,38.1,26.8,33.0,27.9,23.0,90,69,43,30.18,30.02,6,1,8,0.00
2013-10-13,49.4,43.4,38.4,35.0,33.0,31.0,82,68,54,30.23,30.14,7,1,12,0.00
2013-10-14,47.8,40.7,32.6,37.0,33.9,30.0,90,77,56,30.43,30.24,10,2,12,0.02
2013-10-15,52.5,41.5,27.5,33.0,28.8,25.0,94,64,41,30.44,30.08,17,6,30,0.01
2013-10-16,46.7,41.1,36.7,37.0,31.0,25.0,91,70,44,30.23,30.02,10,2,23,0.20
2013-10-17,48.6,38.7,31.8,38.0,33.1,30.0,94,81,55,30.30,30.18,11,2,18,0.02
2013-10-18,58.6,44.4,29.6,36.0,30.6,27.0,92,62,36,30.31,30.00,14,4,24,0.00
2013-10-19,61.4,51.8,45.2,34.0,31.8,30.0,59,47,32,30.01,29.83,12,3,21,0.00
2013-10-20,57.4,46.9,37.3,39.0,35.8,31.0,88,67,43,30.06,29.95,9,2,20,0.00
2013-10-21,62.3,49.6,33.6,40.0,36.1,30.0,91,62,42,30.12,30.04,13,4,24,0.00
2013-10-22,66.8,54.1,41.1,39.0,36.6,33.0,73,54,31,30.08,29.96,13,3,29,0.00
2013-10-23,61.9,43.4,29.5,39.0,34.0,28.0,94,73,40,30.23,30.06,5,1,9,0.00
2013-10-24,62.2,48.6,29.9,39.0,33.6,28.0,96,61,33,30.24,30.03,17,4,23,0.01
2013-10-25,66.8,53.6,38.5,37.0,32.9,30.0,73,47,28,30.17,30.04,19,4,24,0.00
2013-10-26,65.4,52.9,33.7,32.0,27.8,18.0,83,42,17,30.17,29.92,19,6,30,0.00
2013-10-27,57.5,44.0,25.9,31.0,27.3,23.0,94,57,26,30.26,29.75,26,9,33,0.00
2013-10-28,25.6,19.7,17.9,24.0,17.5,16.0,92,91,91,30.42,30.27,18,12,23,0.00
2013-10-29,34.7,26.5,18.4,26.0,21.5,16.0,92,82,67,30.36,29.93,17,6,25,0.00
2013-10-30,48.1,39.7,34.4,29.0,26.1,24.0,67,59,44,29.93,29.86,18,7,26,0.00
2013-10-31,52.4,43.8,38.2,33.0,28.4,25.0,72,55,42,30.00,29.82,15,4,21,0.00
2013-11-1,54.0,43.0,31.6,33.0,28.4,26.0,83,58,37,30.17,30.00,16,2,20,0.00
2013-11-2,57.2,46.9,40.7,34.0,29.9,24.0,64,53,35,30.08,29.48,29,7,32,0.00
2013-11-3,42.1,35.9,27.0,29.0,21.9,17.0,91,60,43,30.00,29.61,14,4,20,0.00
2013-11-4,35.8,26.7,21.3,27.0,22.3,18.0,91,84,68,30.19,30.00,12,1,13,0.03
2013-11-5,39.8,33.4,21.8,27.0,18.8,14.0,85,57,38,30.20,30.10,25,5,31,0.00
2013-11-6,45.5,39.5,32.6,28.0,24.5,21.0,69,56,42,30.32,30.10,15,2,21,0.00
2013-11-7,53.6,45.0,36.2,40.0,31.1,25.0,79,59,47,30.30,29.61,16,6,27,0.11
2013-11-8,46.2,42.8,39.6,30.0,26.7,22.0,61,53,48,30.09,29.70,10,3,22,0.00
2013-11-9,45.8,41.0,34.9,26.0,23.8,22.0,61,51,43,30.19,30.09,18,4,22,0.00
2013-11-10,41.6,33.9,27.2,29.0,26.2,24.0,87,74,56,30.34,30.10,8,2,14,0.02
2013-11-11,44.9,34.0,26.2,36.0,28.3,23.0,89,80,65,30.50,30.35,18,2,22,0.00
2013-11-12,57.5,50.5,39.6,35.0,31.7,27.0,78,51,32,30.43,30.14,17,6,25,0.00
2013-11-13,54.3,49.6,42.7,37.0,30.4,24.0,56,48,32,30.14,30.05,17,3,26,0.00
2013-11-14,49.9,43.5,38.5,27.0,25.3,23.0,57,49,40,30.07,29.68,10,2,20,0.00
2013-11-15,45.5,40.3,38.7,24.0,22.0,20.0,52,48,41,29.67,29.34,15,5,26,0.00
2013-11-16,43.8,34.5,19.4,28.0,23.0,15.0,85,64,41,29.62,29.20,20,6,26,0.00
2013-11-17,41.7,32.5,17.4,26.0,20.3,14.0,89,63,42,30.01,29.62,13,3,28,0.00
2013-11-18,54.1,45.1,38.2,22.0,19.7,16.0,49,37,26,29.93,29.66,21,6,30,0.00
2013-11-19,55.3,44.4,13.9,34.0,24.2,8.0,78,48,32,29.80,29.46,21,7,27,0.00
2013-11-20,13.7,8.4,1.4,9.0,1.9,-4.0,85,75,61,30.63,29.80,18,5,20,0.00
2013-11-21,24.3,17.2,2.3,11.0,6.7,-3.0,80,64,53,30.80,30.62,20,8,29,0.00
2013-11-22,34.2,28.1,22.8,11.0,8.9,7.0,57,45,36,30.75,30.65,20,11,30,0.00
2013-11-23,37.4,32.6,27.8,16.0,13.0,10.0,52,45,38,30.66,30.24,27,15,35,0.00
2013-11-24,45.5,37.9,31.4,24.0,17.3,15.0,68,44,32,30.30,30.10,27,13,32,0.00
2013-11-25,46.4,34.1,19.2,26.0,21.6,16.0,90,63,42,30.42,30.31,17,5,20,0.00
2013-11-26,48.7,43.0,35.9,26.0,24.5,23.0,61,49,40,30.41,30.05,20,8,27,0.00
2013-11-27,51.6,41.0,22.8,27.0,23.7,19.0,87,53,34,30.11,30.01,16,3,22,0.00
2013-11-28,48.0,39.1,20.9,26.0,23.1,17.0,91,56,39,30.13,30.03,25,8,33,0.00
2013-11-29,50.9,45.7,40.2,29.0,24.0,22.0,55,43,34,30.10,30.00,26,8,30,0.00
2013-11-30,51.5,45.0,40.5,32.0,30.2,29.0,65,57,47,30.11,30.05,11,2,19,0.00
2013-12-1,46.1,44.6,40.9,37.0,32.5,29.0,81,63,52,30.06,29.57,21,7,25,0.02
2013-12-2,45.1,27.5,8.7,37.0,21.3,4.0,88,78,53,30.15,29.46,23,5,29,0.03
2013-12-3,8.5,4.9,-1.0,4.0,0.1,-6.0,84,80,77,30.57,30.15,13,6,18,0.00
2013-12-4,5.0,-1.0,-15.0,0.0,-6.4,-20.0,85,78,65,30.63,30.55,12,3,16,0.00
2013-12-5,8.3,-4.5,-15.7,-2.0,-10.8,-20.0,84,75,61,30.80,30.58,11,2,17,0.00
2013-12-6,-7.6,-14.7,-22.1,-13.0,-20.5,-27.0,81,75,66,30.92,30.79,6,3,9,0.00
2013-12-7,-4.1,-14.7,-27.5,-12.0,-22.8,-99.9,79,70,58,30.91,30.55,20,-4,27,0.00
2013-12-8,5.3,1.1,-5.3,-1.0,-7.3,-15.0,77,68,60,30.56,30.46,23,12,31,0.00
2013-12-9,27.2,16.2,3.4,14.0,4.0,-6.0,64,59,53,30.48,30.21,26,14,40,0.00
2013-12-10,28.7,21.1,3.9,20.0,12.1,1.0,88,70,50,30.40,30.14,22,3,31,0.00
2013-12-11,34.3,29.0,5.2,20.0,16.6,2.0,90,61,54,30.43,30.30,31,10,36,0.00
2013-12-12,40.4,35.6,30.1,23.0,20.3,18.0,62,54,48,30.33,29.99,22,9,31,0.00
2013-12-13,43.5,38.2,33.1,26.0,24.5,22.0,70,58,49,30.24,29.99,12,2,19,0.00
2013-12-14,46.0,42.0,37.8,31.0,27.5,24.0,62,57,43,30.25,30.07,16,5,26,0.00
2013-12-15,52.2,47.2,44.8,29.0,24.9,20.0,53,42,35,30.15,29.96,29,11,44,0.00
2013-12-16,49.7,44.7,39.0,29.0,25.4,23.0,56,47,38,30.23,29.99,27,6,31,0.00
2013-12-17,58.0,48.9,41.7,23.0,20.1,17.0,46,33,23,30.23,29.74,25,11,32,0.00
2013-12-18,51.5,37.8,7.9,25.0,19.7,3.0,87,53,27,30.08,29.63,25,9,35,0.00
2013-12-19,16.8,9.9,1.0,6.0,0.9,-4.0,80,68,55,30.39,30.09,25,7,31,0.00
2013-12-20,28.7,22.7,16.0,21.0,11.4,6.0,81,63,50,30.16,29.66,23,12,31,0.00
2013-12-21,34.6,26.2,17.5,23.0,18.5,13.0,84,73,50,30.10,29.66,14,3,18,0.00
2013-12-22,20.2,14.5,9.4,13.0,9.1,6.0,90,79,68,30.41,30.09,7,2,9,0.00
2013-12-23,44.6,37.7,17.3,36.0,29.0,15.0,91,71,62,30.38,29.91,26,9,30,0.12
2013-12-24,39.3,35.7,31.5,27.0,21.1,18.0,71,56,46,30.41,30.01,14,3,22,0.00
2013-12-25,44.0,36.7,30.8,18.0,13.9,5.0,60,41,20,30.43,30.19,29,10,37,0.00
2013-12-26,52.1,47.1,40.1,29.0,25.8,19.0,51,44,39,30.28,30.07,18,8,28,0.00
2013-12-27,53.9,49.3,44.3,29.0,23.4,20.0,45,36,30,30.10,29.77,22,9,39,0.00
2013-12-28,48.5,22.9,13.0,25.0,12.3,6.0,79,65,34,30.47,29.83,20,6,26,0.00
2013-12-29,38.2,32.1,19.0,24.0,18.4,13.0,78,58,48,30.47,30.06,20,8,33,0.00
2013-12-30,45.1,40.0,32.2,33.0,25.9,23.0,70,58,46,30.19,29.90,22,4,25,0.00
2013-12-31,45.5,42.8,37.3,33.0,29.3,25.0,67,59,55,30.06,29.87,15,4,20,0.00
2014-1-1,42.8,35.0,24.6,27.0,22.1,20.0,87,61,42,30.35,30.06,10,2,18,0.00
2014-1-2,48.4,41.9,36.3,30.0,21.8,18.0,51,45,39,30.25,29.68,25,14,39,0.00